Tracking 27124 objects as of 1-Apr-2023
HD Live streaming from Space Station
objects crossing your sky now

STARLINK-5751

Track STARLINK-5751 now!
10-day predictions
STARLINK-5751 is classified as:


NORAD ID: 55576
Int'l Code: 2023-020H
Perigee: 361.5 km
Apogee: 362.8 km
Inclination: 43.0 °
Period: 91.6 minutes
Semi major axis: 6733 km
RCS: Unknown
Launch date: February 12, 2023
Source: United States (US)
Launch site: AIR FORCE EASTERN TEST RANGE (AFETR)
Your satellite tracking list
Your tracking list is empty




NASA's NSSDC Master Catalog

Two Line Element Set (TLE):
1 55576U 23020H   23090.81254796 -.00001474  00000-0 -78033-5 0  9995
2 55576  43.0030  69.0018 0000972 278.6032  81.4726 15.71349268  7506
Source of the keplerian elements: AFSPC